TimeEET,TemperatureF,Dew PointF,Humidity,Sea Level PressureIn,VisibilityMPH,Wind Direction,Wind SpeedMPH,Gust SpeedMPH,PrecipitationIn,Events,Conditions,WindDirDegrees,DateUTC
12:00 AM,77.0,55.4,47,29.95,-9999.0,North,2.3,-,N/A,,Clear,360,2013-10-18 22:00:00
1:00 AM,75.2,57.2,53,29.95,-9999.0,Calm,Calm,-,N/A,,Clear,0,2013-10-18 23:00:00
2:00 AM,74,53,37,29.94,6,Calm,Calm,,,,,,2013-10-19 00:00:00
2:00 AM,73.4,53.6,50,29.95,-9999.0,Calm,Calm,-,N/A,,Clear,0,2013-10-19 00:00:00
3:00 AM,73.4,55.4,53,29.95,-9999.0,Calm,Calm,-,N/A,,Clear,0,2013-10-19 01:00:00
4:00 AM,71.6,53.6,53,29.95,-9999.0,Calm,Calm,-,N/A,,Clear,0,2013-10-19 02:00:00
5:00 AM,71.6,57.2,60,29.98,-9999.0,ENE,4.6,-,N/A,,Clear,70,2013-10-19 03:00:00
6:00 AM,71.6,57.2,60,29.98,-9999.0,East,2.3,-,N/A,,Clear,80,2013-10-19 04:00:00
7:00 AM,73.4,57.2,57,30.01,-9999.0,East,2.3,-,N/A,,Clear,100,2013-10-19 05:00:00
8:00 AM,77,62,50,30.02,6,Calm,Calm,,,,,,2013-10-19 06:00:00
8:00 AM,77.0,62.6,61,30.04,-9999.0,Calm,Calm,-,N/A,,Clear,0,2013-10-19 06:00:00
9:00 AM,80.6,62.6,54,30.04,5.0,NW,2.3,-,N/A,,Unknown,310,2013-10-19 07:00:00
10:00 AM,84.2,60.8,45,30.04,-9999.0,WNW,3.5,-,N/A,,Clear,300,2013-10-19 08:00:00
11:00 AM,86.0,59.0,40,30.01,-9999.0,North,4.6,-,N/A,,Clear,360,2013-10-19 09:00:00
12:00 PM,87.8,55.4,33,30.01,-9999.0,North,4.6,-,N/A,,Clear,350,2013-10-19 10:00:00
1:00 PM,89.6,57.2,33,29.98,-9999.0,North,3.5,-,N/A,,Clear,360,2013-10-19 11:00:00
2:00 PM,92,56,20,29.94,6,North,3.5,,,,,350,2013-10-19 12:00:00
2:00 PM,91.4,55.4,29,29.95,-9999.0,North,3.5,-,N/A,,Clear,350,2013-10-19 12:00:00
3:00 PM,91.4,53.6,28,29.95,-9999.0,NNW,3.5,-,N/A,,Clear,340,2013-10-19 13:00:00
4:00 PM,91.4,51.8,26,29.92,-9999.0,NNW,3.5,-,N/A,,Clear,340,2013-10-19 14:00:00
5:00 PM,87.8,53.6,31,29.95,-9999.0,NNW,2.3,-,N/A,,Clear,340,2013-10-19 15:00:00
6:00 PM,82.4,53.6,37,29.95,-9999.0,Calm,Calm,-,N/A,,Clear,0,2013-10-19 16:00:00
7:00 PM,78.8,53.6,42,29.98,-9999.0,West,2.3,-,N/A,,Clear,260,2013-10-19 17:00:00
8:00 PM,78,53,31,29.98,6,WSW,2.3,,,,,240,2013-10-19 18:00:00
8:00 PM,77.0,53.6,44,29.98,-9999.0,WSW,2.3,-,N/A,,Clear,240,2013-10-19 18:00:00
9:00 PM,77.0,51.8,41,29.98,-9999.0,SW,3.5,-,N/A,,Clear,220,2013-10-19 19:00:00
10:00 PM,75.2,50.0,41,29.98,-9999.0,SSE,2.3,-,N/A,,Clear,160,2013-10-19 20:00:00
11:00 PM,73.4,50.0,44,29.98,-9999.0,SE,4.6,-,N/A,,Clear,130,2013-10-19 21:00:00